Regional Weather Roundup
Issued by NWS

Home | Current Version | Previous Version | Graphics & Text | Print | Product List | Glossary On
Versions: 1 2 3 4 5 6 7 8 9 10 11 12 13 14 15 16 17 18 19 20 21 22 23 24 25 26 27 28 29 30 31 32 33 34 35 36 37 38 39 40 41 42 43 44 45 46 47 48 49 50
577
ASUS44 KLIX 221510
RWRLA
LOUISIANA WEATHER ROUNDUP
NATIONAL WEATHER SERVICE NEW ORLEANS LA
1000 AM CDT TUE JUL 22 2014

NOTE: "FAIR" INDICATES FEW OR NO CLOUDS BELOW 12,000 FEET WITH NO
      SIGNIFICANT WEATHER AND/OR OBSTRUCTIONS TO VISIBILITY.
      SKY/WX - SKY CONDITION AND SIGNIFICANT WEATHER.
      TMP - AIR TEMPERATURE.    DP   - DEWPOINT TEMPERATURE.
      RH  - RELATIVE HUMIDITY.  PRES - PRESSURE.
      HX  - HEAT INDEX.         WCI  - WIND CHILL INDEX.

*  THESE STATIONS ARE NOT NWS OR FAA STATIONS AND ARE NOT UNDER
   NWS QUALITY CONTROL.

LAZ040-048-061>063-065-066-069-221600-
SOUTHEAST LOUISIANA

CITY           SKY/WX    TMP DP  RH WIND       PRES   REMARKS
N.O. AUDUBON     N/A     90  76  62 MISG        N/A  HX 101
N.O. INTL ARPT PTSUNNY   85  73  67 CALM      30.03S
N.O. LAKEFRONT MOSUNNY   86  75  69 N5        30.03S HX  95
N.O. DOWNTOWN* FAIR      88  70  55 S3        30.03S
SLIDELL        PTSUNNY   84  72  67 NE3       30.03S
BATON ROUGE    SUNNY     83  70  64 NE6       30.04S
BOOTHVILLE     SUNNY     84  71  65 VRB3      30.03F
BELLE CHASSE   PTSUNNY   86  75  69 S5        30.02S HX  95
BOGALUSA*      FAIR      82  73  72 CALM      30.06S
GALLIANO*      NOT AVBL
NEW ROADS*     FAIR      82  73  76 CALM      30.05S
GONZALES*      PTSUNNY   83  74  72 CALM      30.03S
HAMMOND*       PTSUNNY   82  72  69 CALM      30.06R
HOUMA*         PTSUNNY   84  75  74 S5        30.03S
PORT FOURCHON* MOSUNNY   86  77  74 SW6       30.05R HX  97

$$

LAZ041-044-053-054-221600-
SOUTHWEST LOUISIANA

CITY           SKY/WX    TMP DP  RH WIND       PRES   REMARKS
LAKE CHARLES   SUNNY     83  72  69 E8        30.05F
LAFAYETTE      MOSUNNY   83  73  72 CALM      30.05R
PATTERSON      MOSUNNY   84  79  84 NW6       30.07S HX  96
SALT POINT       N/A     87  78  74 W3        30.03R HX 100
NEW IBERIA     MOSUNNY   85  72  65 CALM      30.04F
CHENAULT AIRPK SUNNY     82  72  69 CALM      30.06F

$$

LAZ027-028-221600-
CENTRAL LOUISIANA

CITY           SKY/WX    TMP DP  RH WIND       PRES   REMARKS
FORT POLK      SUNNY     83  71  67 E5        30.07R
ALEXANDRIA INT SUNNY     83  71  67 NE5       30.04F
ALEXANDRIA     SUNNY     85  72  65 VRB3      30.05F

$$

LAZ001-002-221600-
NORTHWEST LOUISIANA

CITY           SKY/WX    TMP DP  RH WIND       PRES   REMARKS
SHREVEPORT     MOSUNNY   83  69  62 SE6       30.08S
BARKSDALE AFB  SUNNY     81  71  70 VRB1      30.08F
DTN SHREVEPORT SUNNY     80  69  69 CALM      30.08F

$$

LAZ014-016-221600-
NORTHEAST LOUISIANA

CITY           SKY/WX    TMP DP  RH WIND       PRES   REMARKS
MONROE         SUNNY     83  71  67 NE5       30.08S
TALLULAH       SUNNY     83  72  69 NE5       30.07S

$$




USA.gov is the U.S. government's official web portal to all federal, state and local government web resources and services.